Back to catalog

STARLINK-32700

AliveCommunicationsVLEO
NORAD 62311·PAYLOAD·🇺🇸 United States

Launched Dec 13, 2024 from Vandenberg Space Force Base

Loading…

Next Passes (next 24 hours)

TLE

FreshSource: CelesTrak SupGP

Epoch: Sep 14, 2026, 21:35 UTC

1 62311C 24239L   26257.89979167  .00013747  00000+0  40625-3 0  2579
2 62311  53.1606  19.6677 0001244  75.9188 139.8910 15.34375703    11

Track STARLINK-32700 in real time with AllMySat

Download on the App Store